Location: Limoges
(45.8354°N, 1.2645°E)
Time: 19:24:30
(UTC+02:00)

Vanguard 2 Rocket - Pass Details

Date: 29 February 2024
Orbit: 555 x 3307 km, 32.9° (Epoch: 11 April)

Event Time Altitude Azimuth Distance (km) Brightness Sun altitude
Rises 19:22:03 0° 269° (W) 5,299 13.4 -8.0°
Reaches altitude 10° 19:25:39 10° 259° (W) 4,665 12.2 -8.6°
Maximum altitude 19:37:10 31° 205° (SSW) 4,098 10.5 -10.6°
Drops below altitude 10° 19:52:34 10° 153° (SSE) 6,221 10.8 -13.3°
Sets 19:58:27 0° 144° (SE) 7,278 11.1 -14.3°
